Weather in Tatarka

Russia / Stavropol Krai     44°57′34″N   41°57′28″E
temp.,
°C
wind,
m/s
gust,
m/s
humid.,
%
clouds,
%
prec.,
mm/h
press.,
hPa
HPBL,
m
7 may, fri
fri700:00+9se3672100 0.0 1014135
03:00+9sse226989 0.0 101435
06:00+10sw237668 0.0 101554
09:00+15w476974 0.0 1016548
12:00+18wnw67521 0.0 10171078
15:00+18wnw57525 0.0 10171317
18:00+16wnw346722 0.0 1017215
21:00+12sw017865 0.0 101910
8 may, sat
sat800:00+11se117559 0.0 101810
03:00+12se227115 0.0 101717
06:00+11ese34807 0.0 101771
09:00+17se4765100 0.0 1016602
12:00+20se6654100 0.0 10141092
15:00+21se5555100 0.0 10131209
18:00+18se376993 0.0 1012254
21:00+14se33775 0.0 101244
9 may, sun
sun900:00+12se3376100 0.0 101027
03:00+13wsw4974100 0.0 1011278
06:00+12w3108292 0.0 1010358
09:00+14nnw237486 0.0 1010363
12:00+11wnw81094100 0.3 1012781
15:00+6wnw81397100 7.9 1017959
18:00+6wnw71295100 3.3 1020862
21:00+6w7139468 3.4 1021867
10 may, mon
mon1000:00+4w51294100 0.1 1022433
03:00+3w411959 0.2 1022331
06:00+4w511938 0.0 1022506
09:00+8w710735 0.1 10211187
12:00+10w9116178 0.8 10201891
15:00+10w9116633 1.4 10191614
18:00+7wnw7118761 0.5 10191058
21:00+5w61092100 0.9 1021775
11 may, tue
tue1100:00+5sw51191100 0.1 1020755
03:00+3ssw2689100 0.1 1020184
06:00+4sse398699 0.0 1019313
09:00+9se6770100 0.0 1018857
12:00+11se8864100 0.0 10181276
15:00+11ese9967100 0.1 10171313
18:00+9ese71078100 0.0 1018900
21:00+8ese51185100 0.1 1018527